GalileoSat-3

operational
NORAD ID: 38857 Int'l Des: 2012-055 Owner: ESA/GSAEU Country: I-ESA Constellation: Galileo
MEOCIRCULAR

About GalileoSat-3

Description loading...

Live Position

Loading 3D Globe...

Upcoming Passes

Altitude History

Altitude vs Time

uPlot chart will show altitude changes over time

Two-Line Element Set

1 38857U 12055A 25275.96423577 .00000066 00000-0 00000-0 0 9990
2 38857 55.6476 108.6098 0001652 283.0303 77.0362 1.70473537 80629
Epoch: Oct 2, 2025 • Age: 68 hours

Current Status

Altitude 23235.2 km
Velocity 3.67 km/s
Sub-Earth Point -49.37°S, 117.25°E
Launch Date Oct 12, 2012
Age 12.9 years
Type navigation

Technical Details

Classification Payload
Mass 700.00 kg
Dry Mass 700.00 kg
Total Mass 700.00 kg
Length 2.70 m
Diameter 1.60 m
Span 14.50 m
Shape Box + 2 Pan
Manufacturer EADSB/THALR
Bus Type GalileoSat
Phase Status In Orbit
Owner/State ESA/GSAEU/I-ESA

Large Constellations

Loading constellations...